| time (UTC) | temp F | wind direction | speed MPH | gust MPH | rain 1hr in | rain 24hr in | rain mn in | humidity % | barometer mb |
| 20260903003034 | 65 | 0 | 0.0 | 2.0 | 0.00 | 0.26 | 0.26 | 97 | 1018.9 |
| 20260903002517 | 65 | 0 | 0.0 | 0.0 | 0.00 | 0.26 | 0.26 | 97 | 1018.9 |
| 20260903002019 | 65 | 0 | 0.0 | 0.0 | 0.00 | 0.26 | 0.26 | 97 | 1018.9 |
| 20260903001534 | 65 | 0 | 0.0 | 0.0 | 0.00 | 0.26 | 0.26 | 97 | 1019.2 |
| 20260903001021 | 65 | 0 | 0.0 | 0.0 | 0.00 | 0.26 | 0.26 | 97 | 1019.1 |
| 20260903000518 | 65 | 0 | 0.0 | 0.0 | 0.00 | 0.26 | 0.26 | 96 | 1019.2 |
| 20260903000035 | 65 | 0 | 0.0 | 0.0 | 0.00 | 0.26 | 0.26 | 96 | 1019.0 |
| 20260902235517 | 65 | 0 | 0.0 | 0.0 | 0.00 | 0.26 | 0.26 | 96 | 1018.9 |
| 20260902235016 | 65 | 0 | 0.0 | 1.0 | 0.00 | 0.26 | 0.26 | 96 | 1018.7 |
| 20260902234533 | 65 | 0 | 0.0 | 1.0 | 0.00 | 0.26 | 0.26 | 96 | 1018.7 |
| 20260902234015 | 65 | 0 | 0.0 | 1.0 | 0.00 | 0.26 | 0.26 | 96 | 1018.6 |
| 20260902233520 | 65 | 0 | 0.0 | 8.0 | 0.00 | 0.26 | 0.26 | 96 | 1018.5 |
| 20260902233038 | 65 | 0 | 0.0 | 9.0 | 0.00 | 0.26 | 0.26 | 96 | 1018.5 |
| 20260902232519 | 65 | 163 | 0.0 | 9.0 | 0.00 | 0.26 | 0.26 | 96 | 1018.5 |
| 20260902232015 | 65 | 0 | 0.0 | 1.0 | 0.00 | 0.26 | 0.26 | 96 | 1018.6 |
| 20260902231546 | 65 | 0 | 0.0 | 1.0 | 0.00 | 0.26 | 0.26 | 96 | 1018.7 |
| 20260902231017 | 65 | 0 | 0.0 | 1.0 | 0.00 | 0.26 | 0.26 | 96 | 1018.7 |
| 20260902230516 | 66 | 0 | 0.0 | 1.0 | 0.00 | 0.26 | 0.26 | 96 | 1018.8 |
| 20260902230035 | 66 | 0 | 0.0 | 1.0 | 0.00 | 0.26 | 0.26 | 96 | 1018.8 |
| 20260902225516 | 66 | 0 | 0.0 | 0.0 | 0.00 | 0.26 | 0.26 | 96 | 1019.1 |
| 20260902225018 | 66 | 0 | 0.0 | 0.0 | 0.00 | 0.26 | 0.26 | 96 | 1019.0 |
| 20260902224533 | 66 | 0 | 0.0 | 2.0 | 0.00 | 0.26 | 0.26 | 96 | 1018.9 |
| 20260902224019 | 66 | 0 | 0.0 | 2.0 | 0.00 | 0.26 | 0.26 | 96 | 1018.9 |
| 20260902223520 | 66 | 0 | 0.0 | 0.0 | 0.00 | 0.26 | 0.26 | 96 | 1018.9 |
| 20260902223035 | 66 | 0 | 0.0 | 0.0 | 0.00 | 0.26 | 0.26 | 96 | 1018.9 |
| 20260902222518 | 67 | 0 | 0.0 | 0.0 | 0.00 | 0.26 | 0.26 | 96 | 1018.9 |
| 20260902222018 | 67 | 0 | 0.0 | 0.0 | 0.00 | 0.26 | 0.26 | 96 | 1019.0 |
| 20260902221537 | 67 | 0 | 0.0 | 0.0 | 0.00 | 0.26 | 0.26 | 96 | 1019.2 |
| 20260902221016 | 67 | 0 | 0.0 | 0.0 | 0.00 | 0.26 | 0.26 | 96 | 1019.5 |
| 20260902220517 | 67 | 0 | 0.0 | 0.0 | 0.00 | 0.26 | 0.26 | 96 | 1019.3 |
| 20260902220035 | 67 | 0 | 0.0 | 0.0 | 0.00 | 0.26 | 0.26 | 96 | 1019.3 |
| 20260902215518 | 67 | 0 | 0.0 | 0.0 | 0.00 | 0.26 | 0.26 | 96 | 1019.5 |
| 20260902215017 | 67 | 0 | 0.0 | 2.0 | 0.00 | 0.26 | 0.26 | 96 | 1019.4 |
| 20260902214535 | 67 | 0 | 0.0 | 2.0 | 0.00 | 0.26 | 0.26 | 96 | 1019.4 |
| 20260902214018 | 67 | 0 | 0.0 | 2.0 | 0.00 | 0.26 | 0.26 | 96 | 1019.4 |
| 20260902213517 | 67 | 0 | 0.0 | 1.0 | 0.00 | 0.26 | 0.26 | 96 | 1019.3 |
| 20260902213033 | 67 | 0 | 0.0 | 1.0 | 0.00 | 0.26 | 0.26 | 96 | 1019.5 |
| 20260902212519 | 67 | 0 | 0.0 | 0.0 | 0.00 | 0.26 | 0.26 | 96 | 1019.4 |
| 20260902212019 | 67 | 0 | 0.0 | 0.0 | 0.00 | 0.26 | 0.26 | 96 | 1019.3 |
| 20260902211536 | 68 | 0 | 0.0 | 0.0 | 0.00 | 0.26 | 0.26 | 96 | 1019.3 |
| 20260902211018 | 68 | 0 | 0.0 | 0.0 | 0.00 | 0.26 | 0.26 | 96 | 1019.1 |
| 20260902210516 | 68 | 0 | 0.0 | 1.0 | 0.00 | 0.26 | 0.26 | 96 | 1019.2 |
| 20260902210047 | 68 | 0 | 0.0 | 1.0 | 0.00 | 0.26 | 0.26 | 96 | 1019.2 |
| 20260902205516 | 68 | 0 | 0.0 | 1.0 | 0.00 | 0.26 | 0.26 | 96 | 1019.3 |
| 20260902205016 | 68 | 0 | 0.0 | 1.0 | 0.00 | 0.26 | 0.26 | 95 | 1019.4 |
| 20260902204543 | 68 | 0 | 0.0 | 0.0 | 0.00 | 0.26 | 0.26 | 96 | 1019.3 |
| 20260902204015 | 68 | 0 | 0.0 | 0.0 | 0.00 | 0.26 | 0.26 | 96 | 1019.3 |
| 20260902203517 | 68 | 0 | 0.0 | 0.0 | 0.00 | 0.26 | 0.26 | 96 | 1019.3 |
| 20260902203036 | 68 | 0 | 0.0 | 1.0 | 0.00 | 0.26 | 0.26 | 96 | 1019.4 |
| 20260902202517 | 68 | 0 | 0.0 | 1.0 | 0.00 | 0.26 | 0.26 | 96 | 1019.2 |
| 20260902202017 | 68 | 0 | 0.0 | 0.0 | 0.00 | 0.26 | 0.26 | 97 | 1019.4 |
| 20260902201534 | 67 | 0 | 0.0 | 0.0 | 0.00 | 0.26 | 0.26 | 96 | 1019.4 |
| 20260902201016 | 67 | 0 | 0.0 | 0.0 | 0.00 | 0.26 | 0.26 | 96 | 1019.4 |
| 20260902200522 | 67 | 0 | 0.0 | 0.0 | 0.00 | 0.26 | 0.26 | 96 | 1019.5 |
| 20260902200036 | 67 | 0 | 0.0 | 0.0 | 0.00 | 0.26 | 0.26 | 96 | 1019.4 |
| 20260902195515 | 67 | 0 | 0.0 | 2.0 | 0.00 | 0.26 | 0.26 | 97 | 1019.3 |
| 20260902195016 | 67 | 0 | 0.0 | 2.0 | 0.00 | 0.26 | 0.26 | 97 | 1019.4 |
| 20260902194539 | 67 | 238 | 0.0 | 2.0 | 0.00 | 0.26 | 0.26 | 97 | 1019.3 |
| 20260902194019 | 66 | 0 | 0.0 | 1.0 | 0.00 | 0.26 | 0.26 | 97 | 1019.4 |
| 20260902193517 | 66 | 0 | 0.0 | 1.0 | 0.00 | 0.26 | 0.26 | 96 | 1019.6 |
| 20260902193034 | 66 | 0 | 0.0 | 1.0 | 0.00 | 0.26 | 0.26 | 97 | 1019.7 |
| 20260902192518 | 66 | 0 | 0.0 | 1.0 | 0.00 | 0.26 | 0.26 | 96 | 1019.7 |
| 20260902192018 | 66 | 0 | 0.0 | 1.0 | 0.00 | 0.26 | 0.26 | 97 | 1019.8 |
| 20260902191534 | 66 | 0 | 0.0 | 1.0 | 0.02 | 0.26 | 0.26 | 97 | 1019.8 |
| 20260902191018 | 65 | 0 | 0.0 | 1.0 | 0.05 | 0.26 | 0.26 | 97 | 1019.9 |
| 20260902190517 | 65 | 0 | 0.0 | 0.0 | 0.06 | 0.26 | 0.26 | 97 | 1020.0 |
| 20260902190037 | 65 | 0 | 0.0 | 0.0 | 0.07 | 0.26 | 0.26 | 97 | 1020.1 |
| 20260902185519 | 65 | 0 | 0.0 | 0.0 | 0.09 | 0.26 | 0.26 | 97 | 1020.3 |
| 20260902185016 | 65 | 0 | 0.0 | 0.0 | 0.15 | 0.26 | 0.26 | 96 | 1020.5 |
| 20260902184536 | 65 | 0 | 0.0 | 0.0 | 0.16 | 0.26 | 0.26 | 97 | 1020.4 |
| 20260902184021 | 65 | 0 | 0.0 | 1.0 | 0.20 | 0.26 | 0.26 | 97 | 1020.4 |
| 20260902183517 | 65 | 0 | 0.0 | 1.0 | 0.22 | 0.26 | 0.26 | 97 | 1020.4 |
| 20260902183048 | 64 | 0 | 0.0 | 1.0 | 0.23 | 0.26 | 0.26 | 97 | 1020.5 |
| 20260902182520 | 64 | 0 | 0.0 | 1.0 | 0.23 | 0.26 | 0.26 | 97 | 1020.7 |
| 20260902182018 | 64 | 0 | 0.0 | 0.0 | 0.23 | 0.26 | 0.26 | 97 | 1020.7 |
| 20260902181535 | 64 | 0 | 0.0 | 0.0 | 0.21 | 0.24 | 0.24 | 96 | 1020.9 |
| 20260902181018 | 64 | 0 | 0.0 | 0.0 | 0.19 | 0.21 | 0.21 | 96 | 1021.0 |
| 20260902180518 | 64 | 0 | 0.0 | 3.0 | 0.18 | 0.20 | 0.20 | 96 | 1021.1 |
| 20260902180036 | 64 | 0 | 0.0 | 3.0 | 0.17 | 0.19 | 0.19 | 96 | 1020.7 |
| 20260902175517 | 64 | 314 | 0.0 | 3.0 | 0.14 | 0.16 | 0.16 | 96 | 1021.0 |
| 20260902175016 | 64 | 0 | 0.0 | 5.0 | 0.09 | 0.11 | 0.11 | 95 | 1021.4 |
| 20260902174535 | 64 | 327 | 0.0 | 5.0 | 0.07 | 0.09 | 0.09 | 95 | 1021.7 |
| 20260902174017 | 64 | 0 | 0.0 | 3.0 | 0.03 | 0.05 | 0.05 | 95 | 1021.5 |
| 20260902173520 | 64 | 0 | 0.0 | 2.0 | 0.02 | 0.04 | 0.04 | 95 | 1021.5 |
| 20260902173038 | 65 | 0 | 0.0 | 1.0 | 0.01 | 0.03 | 0.03 | 95 | 1021.1 |
| 20260902172516 | 65 | 0 | 0.0 | 0.0 | 0.01 | 0.03 | 0.03 | 95 | 1020.8 |
| 20260902172016 | 65 | 0 | 0.0 | 1.0 | 0.01 | 0.03 | 0.03 | 94 | 1020.8 |
| 20260902171535 | 65 | 0 | 0.0 | 1.0 | 0.01 | 0.03 | 0.03 | 94 | 1020.9 |
| 20260902171015 | 65 | 0 | 0.0 | 0.0 | 0.00 | 0.02 | 0.02 | 94 | 1020.6 |
| 20260902170517 | 65 | 0 | 0.0 | 0.0 | 0.00 | 0.02 | 0.02 | 94 | 1020.4 |
| 20260902170034 | 65 | 0 | 0.0 | 0.0 | 0.00 | 0.02 | 0.02 | 94 | 1020.4 |
| 20260902165517 | 65 | 0 | 0.0 | 0.0 | 0.00 | 0.04 | 0.02 | 94 | 1020.4 |
| 20260902165021 | 65 | 0 | 0.0 | 0.0 | 0.00 | 0.04 | 0.02 | 94 | 1020.5 |
| 20260902164540 | 65 | 0 | 0.0 | 0.0 | 0.00 | 0.04 | 0.02 | 94 | 1020.5 |
| 20260902164016 | 65 | 0 | 0.0 | 0.0 | 0.00 | 0.04 | 0.02 | 94 | 1020.4 |
| 20260902163516 | 65 | 0 | 0.0 | 0.0 | 0.00 | 0.04 | 0.02 | 94 | 1020.6 |
| 20260902163033 | 65 | 0 | 0.0 | 0.0 | 0.00 | 0.04 | 0.02 | 94 | 1020.7 |
| 20260902162518 | 65 | 0 | 0.0 | 0.0 | 0.00 | 0.04 | 0.02 | 94 | 1020.8 |
| 20260902162017 | 65 | 0 | 0.0 | 1.0 | 0.00 | 0.04 | 0.02 | 94 | 1020.8 |
| 20260902161537 | 65 | 0 | 0.0 | 1.0 | 0.00 | 0.04 | 0.02 | 94 | 1020.6 |
| 20260902161016 | 65 | 0 | 0.0 | 0.0 | 0.00 | 0.04 | 0.02 | 94 | 1020.7 |
| 20260902160519 | 65 | 0 | 0.0 | 0.0 | 0.00 | 0.04 | 0.02 | 94 | 1020.6 |
| 20260902160037 | 64 | 0 | 0.0 | 1.0 | 0.00 | 0.04 | 0.02 | 94 | 1020.7 |
| 20260902155517 | 64 | 0 | 0.0 | 1.0 | 0.00 | 0.06 | 0.02 | 94 | 1020.7 |
| 20260902155020 | 64 | 0 | 0.0 | 0.0 | 0.00 | 0.06 | 0.02 | 94 | 1020.5 |
| 20260902154541 | 64 | 0 | 0.0 | 1.0 | 0.00 | 0.06 | 0.02 | 94 | 1020.6 |
| 20260902154020 | 64 | 0 | 0.0 | 1.0 | 0.00 | 0.06 | 0.02 | 94 | 1020.5 |
| 20260902153518 | 64 | 0 | 0.0 | 0.0 | 0.00 | 0.06 | 0.02 | 94 | 1020.5 |
| 20260902153038 | 64 | 0 | 0.0 | 1.0 | 0.00 | 0.06 | 0.02 | 94 | 1020.6 |
| 20260902152516 | 64 | 0 | 0.0 | 1.0 | 0.00 | 0.06 | 0.02 | 94 | 1020.6 |
| 20260902152021 | 64 | 0 | 0.0 | 1.0 | 0.00 | 0.06 | 0.02 | 94 | 1020.5 |
| 20260902151535 | 64 | 0 | 0.0 | 0.0 | 0.00 | 0.06 | 0.02 | 94 | 1020.5 |
| 20260902151019 | 64 | 0 | 0.0 | 0.0 | 0.00 | 0.06 | 0.02 | 95 | 1020.6 |
| 20260902150517 | 64 | 0 | 0.0 | 0.0 | 0.00 | 0.06 | 0.02 | 95 | 1020.5 |
| 20260902150039 | 64 | 0 | 0.0 | 1.0 | 0.00 | 0.06 | 0.02 | 95 | 1020.7 |
| 20260902145517 | 64 | 0 | 0.0 | 1.0 | 0.00 | 0.12 | 0.02 | 95 | 1020.7 |
| 20260902145017 | 64 | 0 | 0.0 | 1.0 | 0.00 | 0.12 | 0.02 | 95 | 1020.7 |
| 20260902144538 | 64 | 0 | 0.0 | 0.0 | 0.00 | 0.12 | 0.02 | 95 | 1020.9 |
| 20260902144018 | 64 | 0 | 0.0 | 0.0 | 0.00 | 0.12 | 0.02 | 95 | 1021.2 |
| 20260902143518 | 64 | 0 | 0.0 | 0.0 | 0.00 | 0.12 | 0.02 | 95 | 1021.3 |
| 20260902143034 | 64 | 0 | 0.0 | 0.0 | 0.00 | 0.12 | 0.02 | 95 | 1021.0 |
| 20260902142518 | 64 | 0 | 0.0 | 0.0 | 0.00 | 0.12 | 0.02 | 95 | 1020.9 |
| 20260902142015 | 64 | 0 | 0.0 | 1.0 | 0.00 | 0.12 | 0.02 | 95 | 1020.8 |
| 20260902141536 | 64 | 0 | 0.0 | 1.0 | 0.00 | 0.12 | 0.02 | 96 | 1020.8 |
| 20260902141017 | 64 | 0 | 0.0 | 1.0 | 0.00 | 0.12 | 0.02 | 95 | 1020.7 |
| 20260902140517 | 64 | 0 | 0.0 | 1.0 | 0.00 | 0.12 | 0.02 | 96 | 1020.7 |
| 20260902140039 | 64 | 0 | 0.0 | 0.0 | 0.00 | 0.12 | 0.02 | 96 | 1020.6 |
| 20260902135518 | 64 | 0 | 0.0 | 0.0 | 0.00 | 0.16 | 0.02 | 96 | 1020.7 |
| 20260902135016 | 63 | 0 | 0.0 | 0.0 | 0.00 | 0.16 | 0.02 | 96 | 1020.9 |
| 20260902134536 | 64 | 0 | 0.0 | 0.0 | 0.00 | 0.16 | 0.02 | 96 | 1021.1 |
| 20260902134017 | 63 | 0 | 0.0 | 0.0 | 0.00 | 0.16 | 0.02 | 96 | 1020.9 |
| 20260902133516 | 64 | 0 | 0.0 | 0.0 | 0.00 | 0.16 | 0.02 | 97 | 1020.8 |
| 20260902133034 | 63 | 0 | 0.0 | 0.0 | 0.00 | 0.16 | 0.02 | 97 | 1020.7 |
| 20260902132518 | 63 | 0 | 0.0 | 1.0 | 0.00 | 0.16 | 0.02 | 96 | 1020.5 |
| 20260902132015 | 63 | 0 | 0.0 | 1.0 | 0.00 | 0.16 | 0.02 | 96 | 1020.4 |
| 20260902131536 | 63 | 0 | 0.0 | 1.0 | 0.00 | 0.16 | 0.02 | 97 | 1020.5 |
| 20260902131022 | 63 | 0 | 0.0 | 1.0 | 0.00 | 0.16 | 0.02 | 97 | 1020.6 |
| 20260902130518 | 63 | 0 | 0.0 | 4.0 | 0.00 | 0.16 | 0.02 | 97 | 1020.4 |
| 20260902130034 | 63 | 0 | 0.0 | 4.0 | 0.00 | 0.16 | 0.02 | 97 | 1020.4 |
| 20260902125518 | 63 | 0 | 0.0 | 0.0 | 0.00 | 0.16 | 0.02 | 97 | 1020.4 |
| 20260902125018 | 63 | 0 | 0.0 | 1.0 | 0.00 | 0.16 | 0.02 | 97 | 1020.4 |
| 20260902124535 | 63 | 0 | 0.0 | 1.0 | 0.00 | 0.16 | 0.02 | 97 | 1020.3 |
| 20260902124017 | 63 | 0 | 0.0 | 1.0 | 0.00 | 0.16 | 0.02 | 97 | 1020.3 |
| 20260902123516 | 63 | 0 | 0.0 | 0.0 | 0.00 | 0.16 | 0.02 | 97 | 1020.2 |
| 20260902123035 | 63 | 0 | 0.0 | 2.0 | 0.00 | 0.16 | 0.02 | 97 | 1020.0 |
| 20260902122519 | 63 | 0 | 0.0 | 2.0 | 0.00 | 0.16 | 0.02 | 97 | 1019.9 |
| 20260902122015 | 64 | 0 | 0.0 | 0.0 | 0.00 | 0.16 | 0.02 | 97 | 1019.8 |
| 20260902121535 | 64 | 0 | 0.0 | 0.0 | 0.00 | 0.16 | 0.02 | 97 | 1019.8 |
| 20260902121019 | 64 | 0 | 0.0 | 1.0 | 0.00 | 0.16 | 0.02 | 97 | 1019.8 |
| 20260902120520 | 64 | 0 | 0.0 | 1.0 | 0.00 | 0.16 | 0.02 | 97 | 1020.0 |
| 20260902120034 | 64 | 0 | 0.0 | 1.0 | 0.00 | 0.16 | 0.02 | 97 | 1019.9 |
| 20260902115519 | 64 | 0 | 0.0 | 0.0 | 0.00 | 0.16 | 0.02 | 97 | 1020.0 |
| 20260902115018 | 64 | 0 | 0.0 | 0.0 | 0.00 | 0.16 | 0.02 | 97 | 1020.0 |
| 20260902114537 | 64 | 0 | 0.0 | 0.0 | 0.00 | 0.16 | 0.02 | 97 | 1019.9 |
| 20260902114021 | 64 | 0 | 0.0 | 0.0 | 0.00 | 0.16 | 0.02 | 97 | 1019.9 |
| 20260902113518 | 64 | 0 | 0.0 | 0.0 | 0.00 | 0.16 | 0.02 | 97 | 1020.0 |
| 20260902113041 | 64 | 0 | 0.0 | 0.0 | 0.00 | 0.16 | 0.02 | 97 | 1019.9 |
| 20260902112516 | 64 | 0 | 0.0 | 0.0 | 0.00 | 0.16 | 0.02 | 97 | 1019.9 |
| 20260902112016 | 63 | 0 | 0.0 | 0.0 | 0.00 | 0.16 | 0.02 | 97 | 1020.0 |
| 20260902111537 | 64 | 0 | 0.0 | 0.0 | 0.00 | 0.16 | 0.02 | 97 | 1020.0 |
| 20260902111018 | 63 | 0 | 0.0 | 0.0 | 0.00 | 0.16 | 0.02 | 97 | 1019.8 |
| 20260902110517 | 63 | 0 | 0.0 | 0.0 | 0.00 | 0.16 | 0.02 | 97 | 1020.0 |
| 20260902110034 | 63 | 0 | 0.0 | 0.0 | 0.00 | 0.16 | 0.02 | 97 | 1020.1 |
| 20260902105516 | 63 | 0 | 0.0 | 0.0 | 0.00 | 0.17 | 0.02 | 97 | 1019.9 |
| 20260902105016 | 63 | 0 | 0.0 | 0.0 | 0.00 | 0.17 | 0.02 | 97 | 1019.8 |
| 20260902104544 | 63 | 0 | 0.0 | 0.0 | 0.00 | 0.17 | 0.02 | 97 | 1019.8 |
| 20260902104018 | 63 | 0 | 0.0 | 0.0 | 0.00 | 0.17 | 0.02 | 97 | 1019.8 |
| 20260902103516 | 63 | 0 | 0.0 | 0.0 | 0.01 | 0.17 | 0.02 | 97 | 1019.8 |
| 20260902103044 | 63 | 0 | 0.0 | 0.0 | 0.01 | 0.17 | 0.02 | 97 | 1019.7 |
| 20260902102516 | 63 | 0 | 0.0 | 0.0 | 0.01 | 0.17 | 0.02 | 97 | 1019.8 |
| 20260902102019 | 63 | 0 | 0.0 | 0.0 | 0.01 | 0.17 | 0.02 | 97 | 1020.0 |
| 20260902101544 | 63 | 0 | 0.0 | 0.0 | 0.01 | 0.17 | 0.02 | 97 | 1019.9 |
| 20260902101023 | 63 | 0 | 0.0 | 0.0 | 0.01 | 0.17 | 0.02 | 97 | 1019.7 |
| 20260902100520 | 63 | 0 | 0.0 | 0.0 | 0.01 | 0.17 | 0.02 | 97 | 1019.7 |
| 20260902100034 | 63 | 0 | 0.0 | 0.0 | 0.01 | 0.17 | 0.02 | 97 | 1019.6 |
| 20260902095516 | 63 | 0 | 0.0 | 0.0 | 0.01 | 0.17 | 0.02 | 97 | 1019.5 |
| 20260902095015 | 63 | 0 | 0.0 | 0.0 | 0.01 | 0.17 | 0.02 | 97 | 1019.4 |
| 20260902094535 | 63 | 0 | 0.0 | 0.0 | 0.01 | 0.17 | 0.02 | 97 | 1019.4 |
| 20260902094018 | 63 | 0 | 0.0 | 0.0 | 0.01 | 0.17 | 0.02 | 96 | 1019.4 |
| 20260902093518 | 63 | 0 | 0.0 | 0.0 | 0.00 | 0.16 | 0.01 | 96 | 1019.4 |
| 20260902093043 | 63 | 0 | 0.0 | 0.0 | 0.00 | 0.16 | 0.01 | 97 | 1019.4 |
| 20260902092517 | 63 | 0 | 0.0 | 0.0 | 0.00 | 0.16 | 0.01 | 97 | 1019.2 |
| 20260902092018 | 63 | 0 | 0.0 | 0.0 | 0.00 | 0.16 | 0.01 | 97 | 1019.2 |
| 20260902091539 | 63 | 0 | 0.0 | 0.0 | 0.00 | 0.16 | 0.01 | 97 | 1019.1 |
| 20260902091018 | 63 | 0 | 0.0 | 0.0 | 0.00 | 0.16 | 0.01 | 97 | 1019.1 |
| 20260902090517 | 63 | 0 | 0.0 | 0.0 | 0.00 | 0.16 | 0.01 | 97 | 1019.2 |
| 20260902090036 | 64 | 0 | 0.0 | 0.0 | 0.00 | 0.16 | 0.01 | 97 | 1019.1 |
| 20260902085515 | 64 | 0 | 0.0 | 0.0 | 0.00 | 0.16 | 0.01 | 97 | 1019.1 |
| 20260902085019 | 64 | 0 | 0.0 | 0.0 | 0.00 | 0.16 | 0.01 | 97 | 1019.1 |
| 20260902084547 | 64 | 0 | 0.0 | 0.0 | 0.00 | 0.16 | 0.01 | 96 | 1019.2 |
| 20260902084018 | 64 | 0 | 0.0 | 0.0 | 0.00 | 0.16 | 0.01 | 97 | 1019.2 |
| 20260902083522 | 64 | 0 | 0.0 | 0.0 | 0.00 | 0.16 | 0.01 | 96 | 1019.3 |
| 20260902083042 | 64 | 0 | 0.0 | 0.0 | 0.00 | 0.16 | 0.01 | 96 | 1019.2 |
| 20260902082518 | 64 | 0 | 0.0 | 0.0 | 0.00 | 0.16 | 0.01 | 96 | 1019.1 |
| 20260902082018 | 64 | 0 | 0.0 | 0.0 | 0.00 | 0.16 | 0.01 | 96 | 1019.1 |
| 20260902081535 | 64 | 0 | 0.0 | 0.0 | 0.00 | 0.16 | 0.01 | 96 | 1018.9 |
| 20260902081018 | 64 | 0 | 0.0 | 0.0 | 0.00 | 0.16 | 0.01 | 96 | 1018.9 |
| 20260902080516 | 64 | 0 | 0.0 | 0.0 | 0.00 | 0.16 | 0.01 | 96 | 1018.8 |
| 20260902080034 | 64 | 0 | 0.0 | 0.0 | 0.00 | 0.16 | 0.01 | 96 | 1018.7 |
| 20260902075517 | 64 | 0 | 0.0 | 0.0 | 0.00 | 0.16 | 0.01 | 96 | 1018.8 |
| 20260902075017 | 64 | 0 | 0.0 | 0.0 | 0.00 | 0.16 | 0.01 | 96 | 1018.8 |
| 20260902074535 | 64 | 0 | 0.0 | 0.0 | 0.00 | 0.16 | 0.01 | 96 | 1018.8 |
| 20260902074017 | 64 | 0 | 0.0 | 0.0 | 0.00 | 0.16 | 0.01 | 96 | 1018.7 |
| 20260902073515 | 64 | 0 | 0.0 | 0.0 | 0.00 | 0.16 | 0.01 | 96 | 1018.7 |
| 20260902073036 | 64 | 0 | 0.0 | 0.0 | 0.00 | 0.16 | 0.01 | 96 | 1018.7 |
| 20260902072517 | 64 | 0 | 0.0 | 0.0 | 0.00 | 0.16 | 0.01 | 96 | 1018.8 |
| 20260902072016 | 64 | 0 | 0.0 | 0.0 | 0.00 | 0.16 | 0.01 | 96 | 1018.8 |
| 20260902071538 | 64 | 0 | 0.0 | 0.0 | 0.00 | 0.16 | 0.01 | 96 | 1018.8 |
| 20260902071020 | 64 | 0 | 0.0 | 0.0 | 0.00 | 0.16 | 0.01 | 96 | 1018.8 |
| 20260902070516 | 64 | 0 | 0.0 | 0.0 | 0.00 | 0.16 | 0.01 | 96 | 1018.9 |
| 20260902070037 | 64 | 0 | 0.0 | 0.0 | 0.00 | 0.16 | 0.01 | 96 | 1018.9 |
| 20260902065518 | 64 | 0 | 0.0 | 0.0 | 0.00 | 0.17 | 0.01 | 96 | 1018.8 |
| 20260902065019 | 64 | 0 | 0.0 | 0.0 | 0.01 | 0.17 | 0.01 | 96 | 1018.7 |
| 20260902064535 | 64 | 0 | 0.0 | 0.0 | 0.01 | 0.17 | 0.01 | 96 | 1018.7 |
| 20260902064018 | 64 | 0 | 0.0 | 0.0 | 0.01 | 0.17 | 0.01 | 96 | 1018.6 |
| 20260902063517 | 64 | 0 | 0.0 | 0.0 | 0.01 | 0.17 | 0.01 | 96 | 1018.6 |
| 20260902063034 | 64 | 0 | 0.0 | 0.0 | 0.01 | 0.17 | 0.01 | 96 | 1018.6 |
| 20260902062517 | 64 | 0 | 0.0 | 0.0 | 0.01 | 0.17 | 0.01 | 96 | 1018.7 |
| 20260902062022 | 64 | 0 | 0.0 | 0.0 | 0.01 | 0.17 | 0.01 | 96 | 1018.8 |
| 20260902061545 | 64 | 0 | 0.0 | 1.0 | 0.01 | 0.17 | 0.01 | 96 | 1018.9 |
| 20260902061018 | 64 | 0 | 0.0 | 1.0 | 0.01 | 0.17 | 0.01 | 96 | 1019.1 |
| 20260902060515 | 64 | 0 | 0.0 | 1.0 | 0.01 | 0.17 | 0.01 | 96 | 1018.9 |
| 20260902060034 | 64 | 0 | 0.0 | 0.0 | 0.01 | 0.17 | 0.01 | 96 | 1018.8 |
| 20260902055520 | 64 | 0 | 0.0 | 0.0 | 0.01 | 0.17 | 0.01 | 96 | 1018.8 |
| 20260902055019 | 64 | 0 | 0.0 | 0.0 | 0.00 | 0.16 | 0.00 | 96 | 1018.9 |
| 20260902054538 | 64 | 0 | 0.0 | 0.0 | 0.00 | 0.16 | 0.00 | 96 | 1018.9 |
| 20260902054015 | 64 | 0 | 0.0 | 0.0 | 0.00 | 0.16 | 0.00 | 96 | 1019.0 |
| 20260902053516 | 64 | 0 | 0.0 | 1.0 | 0.00 | 0.16 | 0.00 | 95 | 1018.8 |
| 20260902053035 | 64 | 0 | 0.0 | 1.0 | 0.00 | 0.16 | 0.00 | 95 | 1018.8 |
| 20260902052521 | 64 | 0 | 0.0 | 1.0 | 0.00 | 0.16 | 0.00 | 95 | 1018.7 |
| 20260902052019 | 64 | 0 | 0.0 | 0.0 | 0.00 | 0.16 | 0.00 | 95 | 1018.5 |
| 20260902051539 | 65 | 0 | 0.0 | 0.0 | 0.00 | 0.16 | 0.00 | 95 | 1018.6 |
| 20260902051017 | 65 | 0 | 0.0 | 0.0 | 0.00 | 0.16 | 0.00 | 95 | 1018.6 |
| 20260902050517 | 65 | 0 | 0.0 | 0.0 | 0.00 | 0.16 | 0.00 | 95 | 1018.6 |
| 20260902050033 | 65 | 0 | 0.0 | 0.0 | 0.00 | 0.16 | 0.00 | 95 | 1018.5 |
| 20260902045515 | 65 | 0 | 0.0 | 1.0 | 0.00 | 0.48 | 0.00 | 95 | 1018.6 |
| 20260902045020 | 65 | 0 | 0.0 | 1.0 | 0.00 | 0.48 | 0.00 | 95 | 1018.6 |
| 20260902044551 | 65 | 0 | 0.0 | 0.0 | 0.00 | 0.48 | 0.00 | 95 | 1018.6 |
| 20260902044016 | 65 | 0 | 0.0 | 0.0 | 0.00 | 0.48 | 0.00 | 95 | 1018.7 |
| 20260902043517 | 65 | 0 | 0.0 | 1.0 | 0.00 | 0.48 | 0.00 | 95 | 1018.6 |
| 20260902043034 | 65 | 0 | 0.0 | 1.0 | 0.00 | 0.48 | 0.00 | 95 | 1018.6 |
| 20260902042518 | 65 | 0 | 0.0 | 1.0 | 0.00 | 0.48 | 0.00 | 95 | 1018.6 |
| 20260902042018 | 65 | 0 | 0.0 | 0.0 | 0.00 | 0.48 | 0.00 | 95 | 1018.6 |
| 20260902041534 | 65 | 0 | 0.0 | 0.0 | 0.00 | 0.48 | 0.00 | 95 | 1018.6 |
| 20260902041022 | 65 | 0 | 0.0 | 0.0 | 0.00 | 0.48 | 0.00 | 95 | 1018.5 |
| 20260902040518 | 65 | 0 | 0.0 | 0.0 | 0.00 | 0.48 | 0.00 | 94 | 1018.4 |
| 20260902040035 | 65 | 0 | 0.0 | 2.0 | 0.00 | 0.48 | 0.00 | 94 | 1018.4 |
| 20260902035516 | 65 | 0 | 0.0 | 2.0 | 0.00 | 0.65 | 0.48 | 94 | 1018.3 |
| 20260902035015 | 66 | 0 | 0.0 | 1.0 | 0.00 | 0.65 | 0.48 | 94 | 1018.2 |
| 20260902034538 | 66 | 0 | 0.0 | 0.0 | 0.00 | 0.65 | 0.48 | 94 | 1018.2 |
| 20260902034017 | 66 | 0 | 0.0 | 2.0 | 0.00 | 0.65 | 0.48 | 93 | 1018.0 |
| 20260902033518 | 66 | 0 | 0.0 | 2.0 | 0.00 | 0.65 | 0.48 | 93 | 1017.9 |
| 20260902033035 | 67 | 223 | 0.0 | 1.0 | 0.00 | 0.65 | 0.48 | 93 | 1017.9 |
| 20260902032518 | 67 | 0 | 0.0 | 1.0 | 0.00 | 0.65 | 0.48 | 93 | 1017.7 |
| 20260902032018 | 67 | 0 | 0.0 | 5.0 | 0.00 | 0.65 | 0.48 | 93 | 1017.7 |
| 20260902031539 | 67 | 0 | 0.0 | 5.0 | 0.00 | 0.65 | 0.48 | 93 | 1017.6 |
| 20260902031016 | 67 | 0 | 0.0 | 0.0 | 0.00 | 0.65 | 0.48 | 93 | 1017.6 |
| 20260902030517 | 68 | 0 | 0.0 | 2.0 | 0.00 | 0.65 | 0.48 | 93 | 1017.5 |
| 20260902030035 | 68 | 0 | 0.0 | 3.0 | 0.00 | 0.65 | 0.48 | 93 | 1017.3 |
| 20260902025518 | 68 | 0 | 0.0 | 3.0 | 0.00 | 0.65 | 0.48 | 93 | 1017.2 |
| 20260902025018 | 68 | 0 | 0.0 | 3.0 | 0.00 | 0.65 | 0.48 | 93 | 1017.0 |
| 20260902024537 | 68 | 0 | 0.0 | 0.0 | 0.00 | 0.65 | 0.48 | 93 | 1016.8 |
| 20260902024017 | 69 | 0 | 0.0 | 0.0 | 0.00 | 0.65 | 0.48 | 93 | 1016.6 |
| 20260902023518 | 69 | 0 | 0.0 | 1.0 | 0.00 | 0.65 | 0.48 | 93 | 1016.7 |
| 20260902023038 | 69 | 0 | 0.0 | 1.0 | 0.00 | 0.65 | 0.48 | 93 | 1016.6 |
| 20260902022517 | 69 | 0 | 0.0 | 0.0 | 0.00 | 0.65 | 0.48 | 93 | 1016.6 |
| 20260902022017 | 69 | 0 | 0.0 | 0.0 | 0.00 | 0.65 | 0.48 | 93 | 1016.5 |
| 20260902021546 | 69 | 0 | 0.0 | 0.0 | 0.00 | 0.65 | 0.48 | 93 | 1016.6 |
| 20260902021019 | 69 | 0 | 0.0 | 0.0 | 0.00 | 0.65 | 0.48 | 93 | 1016.6 |
| 20260902020518 | 70 | 0 | 0.0 | 0.0 | 0.00 | 0.65 | 0.48 | 93 | 1016.7 |
| 20260902020036 | 70 | 0 | 0.0 | 1.0 | 0.00 | 0.65 | 0.48 | 93 | 1016.8 |
| 20260902015516 | 70 | 0 | 0.0 | 2.0 | 0.00 | 0.66 | 0.48 | 93 | 1016.7 |
| 20260902015018 | 70 | 0 | 0.0 | 2.0 | 0.00 | 0.66 | 0.48 | 93 | 1016.7 |
| 20260902014541 | 70 | 0 | 0.0 | 2.0 | 0.00 | 0.66 | 0.48 | 93 | 1016.6 |
| 20260902014023 | 70 | 0 | 0.0 | 2.0 | 0.00 | 0.66 | 0.48 | 92 | 1016.6 |
| 20260902013517 | 71 | 0 | 0.0 | 0.0 | 0.00 | 0.66 | 0.48 | 93 | 1016.6 |
| 20260902013035 | 71 | 0 | 0.0 | 0.0 | 0.00 | 0.66 | 0.48 | 93 | 1016.6 |
| 20260902012520 | 71 | 0 | 0.0 | 2.0 | 0.00 | 0.66 | 0.48 | 94 | 1016.3 |
| 20260902012019 | 72 | 0 | 0.0 | 2.0 | 0.00 | 0.66 | 0.48 | 93 | 1016.1 |
| 20260902011534 | 72 | 0 | 0.0 | 3.0 | 0.00 | 0.66 | 0.48 | 94 | 1016.1 |
| 20260902011016 | 72 | 0 | 0.0 | 3.0 | 0.00 | 0.66 | 0.48 | 94 | 1015.9 |
| 20260902010517 | 72 | 0 | 0.0 | 3.0 | 0.00 | 0.66 | 0.48 | 94 | 1015.8 |
| 20260902010037 | 72 | 0 | 0.0 | 3.0 | 0.00 | 0.66 | 0.48 | 94 | 1016.0 |
| 20260902005519 | 73 | 0 | 0.0 | 0.0 | 0.00 | 0.66 | 0.48 | 94 | 1015.9 |
| 20260902005017 | 73 | 0 | 0.0 | 1.0 | 0.00 | 0.66 | 0.48 | 95 | 1015.7 |
| 20260902004534 | 73 | 0 | 0.0 | 1.0 | 0.00 | 0.66 | 0.48 | 95 | 1015.6 |
| 20260902004018 | 73 | 0 | 0.0 | 1.0 | 0.00 | 0.66 | 0.48 | 95 | 1015.5 |
| 20260902003518 | 73 | 0 | 0.0 | 1.0 | 0.00 | 0.66 | 0.48 | 95 | 1015.5 |